Powrót do katalogu

PEGASUS R/B

AktywnyPO
NORAD 23106·ROCKET BODY·🇺🇸 United States

Wystrzelony May 19, 1994 z Vandenberg Space Force Base

Loading…

Następne Przeloty (najbliższe 24 godziny)

TLE

ŚwieżeSource: Space-Track

Epoka: Sep 14, 2026, 04:56 UTC

1 23106U 94029B   26257.20583428  .00000652  00000-0  80853-4 0  9991
2 23106  81.9588 171.4412 0110810 201.3053 158.3527 14.76873806728411

Śledź PEGASUS R/B w czasie rzeczywistym z AllMySat

Download on the App Store